Location: Unspecified
(0.0000°N, 0.0000°E)
Time: 11:42:59
(UTC+00:00)

Courier 1B - Visible Passes

Search period start: 26 May 2015 00:00
Search period end: 05 June 2015 00:00
Orbit: 963 x 1209 km, 28.3° (Epoch: 26 May)

Date Brightness Start Highest point End Pass type
(mag) Time Alt. Az. Time Alt. Az. Time Alt. Az.
26 May 7.7 03:39:34 65° SE 03:39:34 65° SE 03:45:06 10° ESE visible
26 May 8.7 05:27:29 10° WSW 05:32:42 23° SSW 05:37:41 10° SSE visible
26 May 10.4 18:58:21 10° NW 19:00:41 11° NNW 19:02:44 10° N visible
27 May 9.7 02:50:10 16° ESE 02:50:10 16° ESE 02:51:24 10° ESE visible
27 May 8.3 04:37:08 29° SW 04:38:51 33° SSW 04:44:37 10° SSE visible
28 May 8.6 03:47:37 32° SSE 03:47:37 32° SSE 03:51:22 10° SE visible
29 May 8.9 04:44:55 18° SSW 04:45:40 18° SSW 04:50:00 10° SSE visible
30 May 9.3 03:55:10 17° SSE 03:55:10 17° SSE 03:57:08 10° SSE visible
31 May 9.4 04:52:13 10° SSW 04:52:44 10° SSW 04:53:41 10° SSW visible
01 Jun 10.2 21:17:01 10° N 21:18:40 12° N 21:18:40 12° N visible
03 Jun 10.0 21:21:42 10° NNW 21:24:17 17° N 21:24:17 17° N visible
04 Jun 9.8 20:28:36 10° NNW 20:33:00 16° NNE 20:33:41 16° NNE visible
